Tracking 20942 objects as of 10-Jul-2020
HD Live streaming from Space Station
objects crossing your sky now

PSLV DEB

Track PSLV DEB now!
10-day predictions


NORAD ID: 27142
Int'l Code: 2001-049CN
Perigee: 656.8 km
Apogee: 1,074.8 km
Inclination: 97.4 °
Period: 102.1 minutes
Semi major axis: 7236 km
RCS: 0.0118 m2 (small)
Launch date: October 22, 2001
Source: India (IND)
Launch site: SRIHARIKOTA (SRI)

Note: This is SATELLITE DEBRIS
aabbcc
Your satellite tracking list
Your tracking list is empty




NASA's NSSDC Master Catalog

Two Line Element Set (TLE):
1 27142U 01049CN  20192.04776380 -.00000155  00000-0 -47008-4 0  9995
2 27142  97.3575 223.6606 0288856 102.4770 260.8882 14.10209838953273
Source of the keplerian elements: AFSPC